Powrót do katalogu

FREGAT DEB

LostHEO
NORAD 45995·DEBRIS·🇷🇺 Russia

Wystrzelony Jul 18, 2011 z Baikonur Cosmodrome

Loading…

Następne Przeloty (najbliższe 24 godziny)

TLE

NieaktualneSource: Space-Track

Epoka: Aug 20, 2020, 12:04 UTC

1 45995U 11037GW  20233.50306730  .00021599  00000-0  16156-1 0  9994
2 45995  51.0311 276.3533 2871500 115.0590 277.4075  9.12012597  1928

Śledź FREGAT DEB w czasie rzeczywistym z AllMySat

Download on the App Store